Theta_e
309 310 310 311 313 313 314 315 316 317 318 318 317 314 314 314 316 319 325 323 330 325 324 328 330 332 333 338 340 340 337 337 339 340 339 341 342 342 342 342 343 341 341 338 339
308 310 311 311 312 313 314 315 316 317 319 319 317 314 314 315 323 323 322 320 323 325 326 327 330 330 335 340 341 341 335 336 337 338 339 340 341 342 343 343 342 340 337 336 336
308 309 310 311 311 312 314 315 316 318 319 319 317 315 315 317 327 328 319 322 324 323 326 326 330 333 339 340 341 340 337 338 340 340 341 341 342 342 343 343 341 340 338 338 338
308 308 309 310 311 312 314 315 317 318 319 319 316 315 315 327 333 332 320 322 323 323 325 329 333 338 338 341 341 341 341 340 341 341 343 343 343 343 343 343 341 339 338 338 338
308 308 309 309 310 312 314 315 318 319 319 318 316 315 319 330 333 328 323 324 324 323 325 329 335 339 338 340 341 340 341 341 342 342 342 343 344 344 344 342 341 340 338 338 336
308 308 308 309 310 312 313 315 318 319 319 316 315 314 326 331 328 329 329 326 326 324 328 328 336 339 339 340 340 340 340 341 342 343 343 344 345 344 344 343 341 340 339 337 336
307 307 308 309 310 312 313 317 319 319 317 315 316 316 324 329 325 328 325 325 323 324 328 333 336 338 338 338 340 340 341 342 343 343 344 344 347 348 345 344 342 341 340 337 336
307 307 308 309 310 312 314 318 319 319 319 317 316 321 329 323 327 326 325 324 323 324 325 332 337 338 339 338 338 340 340 339 343 343 344 345 346 347 346 344 345 342 341 339 337
306 307 308 309 310 312 316 318 318 318 320 317 322 324 329 323 325 325 324 327 326 325 328 334 335 335 337 336 338 338 336 337 338 342 343 346 345 347 344 345 345 344 343 340 339
306 307 308 309 310 313 317 318 318 318 320 320 323 325 327 328 325 325 325 326 327 330 331 332 332 334 333 334 336 336 336 336 337 340 344 344 344 343 344 346 345 344 344 343 341
306 306 308 309 310 314 318 321 323 326 322 323 323 323 325 324 322 325 326 327 327 329 330 330 331 332 330 333 333 335 336 337 337 341 342 342 343 340 341 344 346 346 345 344 343
305 306 307 309 311 315 319 319 316 316 322 322 322 321 321 321 326 327 326 329 329 330 329 330 331 329 330 333 334 337 337 338 339 342 343 340 341 338 342 345 347 346 345 344 343
306 306 307 309 312 315 318 315 313 316 324 323 322 321 323 322 327 328 328 331 331 330 330 330 330 329 331 335 336 337 337 338 339 341 343 339 341 339 340 341 343 346 346 345 345
306 306 307 308 314 313 319 314 314 316 327 325 322 322 322 325 327 327 328 330 330 331 331 331 329 329 332 333 335 336 337 337 338 338 338 341 342 340 340 340 341 341 341 341 340
306 306 307 307 312 315 315 313 316 319 331 327 321 321 324 326 328 326 326 329 330 330 330 332 330 330 331 333 335 339 339 339 339 338 341 338 341 338 339 338 342 342 341 340 338
306 306 307 313 313 313 312 314 320 331 331 324 322 322 324 325 326 326 327 328 329 330 330 330 330 330 329 334 337 338 340 338 338 336 337 338 342 338 339 339 341 341 341 339 339
306 307 307 309 315 312 313 321 331 333 330 321 322 322 325 326 326 327 327 328 329 330 330 330 330 329 328 333 339 339 338 338 337 336 335 338 342 339 337 339 341 341 341 340 338
307 307 311 310 313 313 318 326 337 329 330 327 321 323 325 326 327 326 327 329 329 330 331 330 331 329 331 334 337 335 336 338 338 336 333 337 336 337 338 340 341 341 340 340 338
307 314 315 316 314 315 326 327 331 330 328 327 321 322 324 324 325 326 328 328 327 329 331 330 329 330 335 334 337 340 338 338 339 340 336 332 334 337 337 339 341 341 340 340 340
311 315 318 317 316 321 325 322 329 326 326 327 325 324 323 322 323 325 327 327 327 326 331 331 330 329 332 335 337 338 338 340 339 338 335 332 335 337 337 339 341 342 340 339 339
315 319 320 317 318 326 326 324 322 323 325 330 331 328 329 326 324 324 326 326 327 327 329 331 332 331 332 333 334 338 339 340 340 339 336 336 335 338 338 342 343 341 339 337 334
314 318 319 320 326 325 323 322 318 325 327 328 332 334 335 334 329 326 326 329 334 331 331 331 335 331 330 334 335 337 338 339 339 335 338 340 340 339 341 341 342 340 339 335 333
317 318 321 321 324 324 325 324 323 326 327 328 333 335 337 335 335 328 333 335 330 331 333 333 338 337 339 339 338 338 339 340 343 344 338 339 336 338 341 341 342 340 338 334 334
317 321 327 324 323 328 326 326 328 326 326 327 332 334 339 340 339 336 335 335 335 336 330 338 341 336 332 333 333 334 335 338 340 337 338 335 337 337 340 343 342 340 336 333 334
316 322 325 326 324 328 328 327 329 328 327 328 332 337 338 340 336 336 335 336 335 334 336 343 335 335 333 333 333 333 333 333 335 335 338 337 338 340 343 343 341 339 336 333 335
318 321 325 327 329 329 324 328 329 327 328 329 332 337 339 342 342 338 337 338 339 339 340 342 338 338 335 334 335 335 333 334 335 336 338 338 340 342 343 341 341 338 335 333 334
314 319 324 325 331 329 328 328 327 329 328 330 338 335 337 338 337 338 339 339 339 341 343 343 343 341 337 335 335 336 333 333 336 339 343 342 341 342 342 342 341 338 335 335 335
Wind_Speed
21 21 23 24 24 25 27 27 27 28 25 14 7 6 6 6 6 3 4 3 4 10 8 7 5 4 4 1 2 5 2 7 8 2 9 7 4 2 2 3 3 3 3 5 10
21 21 22 23 24 25 27 28 28 28 24 12 6 6 5 6 5 8 2 3 5 9 8 7 3 4 2 1 1 5 9 11 4 4 5 6 5 4 4 4 5 7 3 6 13
20 21 22 23 24 25 26 28 28 27 22 11 5 5 5 4 8 3 5 5 7 8 4 2 4 2 1 2 3 3 10 4 4 0 5 3 3 2 5 3 3 5 7 11 13
21 21 22 24 24 26 25 27 28 26 19 8 4 4 4 3 1 5 7 7 7 4 4 5 5 3 2 5 2 2 3 0 2 4 2 2 1 3 8 3 5 4 5 12 12
21 22 22 24 24 25 24 26 26 24 14 5 2 3 2 7 3 3 7 9 6 3 5 5 4 2 4 3 3 6 4 2 2 5 5 2 7 7 7 8 2 3 8 12 11
20 22 23 23 24 25 24 24 24 17 8 3 1 2 4 10 3 3 9 9 4 5 2 5 4 4 4 4 5 4 4 3 5 5 6 8 6 4 3 8 8 8 11 11 11
21 22 24 24 24 24 25 21 21 11 8 3 2 1 7 3 1 5 8 5 3 2 5 2 3 7 3 3 0 3 8 4 5 4 4 5 13 9 4 8 12 11 11 11 12
22 23 23 24 25 24 22 20 17 6 10 5 3 3 2 1 4 7 8 5 4 4 4 3 3 1 6 1 4 5 3 5 5 3 4 6 7 5 5 10 13 12 11 12 13
23 24 24 25 26 25 18 20 10 4 7 4 2 6 6 4 4 7 9 3 5 3 3 3 5 4 4 7 9 4 8 8 3 1 2 5 11 7 2 7 9 10 12 13 14
24 25 24 25 26 21 17 11 4 2 5 2 3 5 7 5 6 6 8 5 2 3 5 5 5 9 3 9 10 9 9 9 8 6 4 9 9 8 3 5 8 9 10 13 13
25 27 25 25 25 15 15 6 3 5 5 7 3 6 3 1 5 9 9 8 4 6 5 0 10 10 13 9 8 8 7 8 7 6 7 9 10 10 10 5 5 9 10 10 11
25 27 26 24 18 14 10 5 6 6 6 6 9 9 9 3 6 10 11 10 8 9 2 9 1 7 7 6 3 4 8 10 1 6 6 10 8 7 7 7 5 4 3 5 8
25 26 26 25 10 10 7 7 9 2 5 2 4 6 4 7 5 13 14 11 9 9 6 6 6 5 4 2 8 7 10 9 9 4 1 14 9 8 4 3 5 5 2 2 5
24 26 26 26 3 10 1 6 13 5 4 7 6 6 7 4 6 2 10 6 7 11 6 6 2 5 7 4 9 8 8 4 5 9 9 7 3 11 8 3 9 10 9 7 7
24 24 23 22 11 6 3 11 4 3 6 4 6 2 5 9 7 5 5 6 12 10 6 4 5 8 9 8 7 6 4 5 4 4 7 11 8 9 5 10 11 9 9 9 9
24 24 24 10 8 6 9 11 2 6 2 5 5 9 12 9 5 5 5 4 4 6 8 13 1 5 6 2 3 3 8 5 5 4 1 7 6 9 9 9 9 8 9 9 10
25 23 23 12 4 10 11 4 5 5 3 5 7 10 14 10 7 8 10 8 8 9 14 13 15 3 5 8 5 7 6 5 5 6 8 4 8 8 9 7 5 5 9 10 10
26 23 14 10 9 10 3 5 5 3 2 3 4 10 13 11 7 5 6 9 10 10 9 10 13 12 7 7 7 2 6 5 10 9 11 6 6 6 4 5 4 3 9 10 11
25 9 5 3 7 2 5 7 3 2 3 1 8 10 9 8 4 9 10 8 4 12 9 6 11 7 2 3 5 5 4 4 6 7 7 6 7 6 4 4 3 5 8 10 10
16 8 3 8 3 4 4 3 1 3 4 3 4 4 10 12 11 9 11 4 11 10 11 4 6 4 4 4 3 6 2 5 4 6 13 12 10 8 11 7 5 5 7 8 7
5 4 3 2 2 5 5 2 2 3 3 3 1 5 2 7 11 9 9 4 2 4 8 7 6 5 4 7 6 4 8 2 3 5 8 9 11 8 7 6 6 6 7 8 8
5 4 3 3 4 2 4 2 3 4 1 2 3 2 1 4 7 7 6 2 1 4 6 6 5 9 4 4 3 5 4 3 5 8 4 6 4 5 5 5 3 5 6 7 6
5 4 1 3 4 6 2 2 3 4 3 3 1 3 1 4 4 5 3 3 5 3 5 8 4 6 8 6 5 4 2 1 2 3 10 7 6 2 4 2 2 4 3 4 5
4 3 3 3 1 5 2 1 1 2 4 3 2 1 3 3 3 7 7 4 4 3 1 1 1 4 7 7 4 3 2 1 4 7 8 8 14 13 10 4 1 0 2 4 7
2 1 3 4 6 4 4 1 2 1 2 2 3 2 1 3 6 6 6 10 5 6 2 2 2 1 3 1 2 4 7 4 7 5 6 13 13 12 10 7 3 2 2 2 6
3 3 2 2 3 5 3 3 2 1 2 3 3 2 1 4 5 4 5 2 4 5 2 1 3 2 4 3 6 8 6 5 6 7 8 9 8 9 7 4 3 0 3 2 3
1 3 4 3 3 5 4 3 0 4 2 2 1 3 6 7 6 5 6 5 5 3 2 2 2 5 4 1 7 9 2 6 7 6 6 10 13 11 9 6 5 2 4 3 1
Wind_Direction
2 358 356 358 358 357 359 2 2 357 356 350 342 324 310 313 299 266 248 71 150 161 138 176 211 241 245 112 3 269 114 70 78 136 88 134 213 162 83 257 203 173 293 28 147
358 353 351 350 353 354 354 355 357 353 353 348 334 315 307 308 256 241 284 148 132 150 171 199 214 224 174 89 68 301 65 65 45 77 69 144 218 155 218 209 219 208 180 157 165
355 350 349 347 346 352 350 351 352 350 348 344 321 315 314 298 243 118 155 150 153 149 191 201 177 232 303 286 45 18 61 78 110 238 314 136 205 196 237 271 249 213 166 178 182
353 349 347 346 344 346 347 347 348 347 342 337 312 318 318 248 225 74 143 165 169 163 186 172 212 227 316 16 23 295 82 355 86 168 231 211 246 225 241 15 12 231 175 185 196
350 347 347 345 344 341 345 344 345 344 338 331 311 330 301 228 51 52 161 178 181 223 253 235 251 300 4 25 280 346 41 221 205 206 227 203 234 246 247 236 250 220 189 199 205
346 345 348 344 342 340 342 342 344 349 353 347 346 324 246 230 45 98 152 173 208 242 294 253 335 5 10 11 332 346 313 260 227 208 201 230 247 248 193 200 197 200 202 207 214
342 346 347 344 341 340 340 340 339 349 348 352 330 204 247 39 68 162 156 183 209 278 318 294 245 297 327 289 85 299 289 190 204 218 239 254 242 225 254 180 205 208 210 217 224
342 345 345 343 342 339 340 337 331 307 6 317 293 228 206 87 133 162 180 211 212 237 271 269 257 11 311 8 218 282 229 349 105 199 148 243 331 127 153 200 218 218 219 218 231
342 343 345 342 344 340 341 333 326 271 336 340 280 252 170 157 181 174 187 208 174 206 197 170 255 306 213 280 215 164 3 22 78 212 331 251 330 87 120 228 250 231 228 224 229
344 343 342 344 345 342 343 346 10 336 322 320 263 232 168 141 138 164 187 184 179 170 184 228 246 256 331 348 19 353 355 359 9 38 261 280 294 326 190 216 265 264 250 235 233
346 341 343 348 345 349 358 332 288 179 340 301 3 304 93 124 183 193 179 186 213 236 277 313 284 23 348 341 324 322 330 343 20 32 305 13 340 356 23 26 239 252 253 254 245
345 344 342 349 349 6 18 59 51 317 303 262 269 270 263 281 183 168 172 196 208 243 213 230 281 9 338 340 302 291 305 28 91 34 305 347 338 35 24 27 17 339 274 269 262
343 343 342 348 354 23 39 59 348 250 261 231 237 249 212 201 207 171 195 210 223 222 223 296 25 314 311 60 297 75 355 352 349 326 221 322 131 67 69 24 49 74 80 308 288
343 341 343 345 16 344 51 349 338 197 259 147 192 209 189 225 207 151 210 238 213 246 201 286 19 301 311 38 340 2 7 330 339 334 17 340 55 67 22 36 76 62 55 40 16
341 339 337 338 311 313 338 337 341 212 212 123 149 103 171 201 147 161 182 221 246 211 228 246 279 336 294 19 332 33 327 343 328 344 299 26 287 56 62 41 60 55 47 36 19
337 335 330 337 304 271 318 325 199 231 148 138 143 177 177 194 157 117 184 232 318 241 233 272 17 285 351 336 329 142 256 249 246 269 16 26 314 72 33 16 30 42 48 38 26
333 327 318 299 310 308 316 255 238 266 151 144 163 185 197 179 156 178 184 188 213 219 231 223 240 211 242 243 177 243 295 308 344 351 26 64 272 35 28 26 16 33 46 45 34
330 323 310 284 287 306 268 231 257 77 71 120 181 181 195 179 188 165 180 204 222 239 273 229 222 202 170 262 329 25 324 349 326 348 331 146 356 30 20 49 82 75 63 48 41
333 327 298 311 293 207 255 238 28 32 16 255 162 187 193 192 243 209 228 251 239 213 235 228 247 119 61 303 300 131 269 23 288 215 279 351 15 154 73 92 89 80 58 48 44
333 317 259 300 179 247 250 289 340 345 325 219 190 232 186 187 202 214 216 251 234 223 237 219 270 175 113 193 123 290 97 243 232 321 319 340 296 36 360 359 22 72 50 47 40
315 289 31 77 269 232 252 46 310 4 292 264 140 169 195 173 209 193 185 137 222 174 215 247 254 141 201 213 332 186 208 250 301 285 321 319 342 55 358 359 7 40 47 38 28
309 245 24 310 226 239 243 335 347 312 199 270 286 31 174 165 196 206 199 290 13 196 189 186 242 242 268 65 314 291 337 286 299 327 344 282 316 49 12 9 30 43 58 46 34
309 290 322 284 238 204 170 250 274 309 348 2 76 20 123 151 159 199 164 55 141 168 168 174 200 203 176 169 172 257 102 15 299 270 286 312 349 78 36 340 79 23 62 86 53
283 242 166 216 314 297 255 160 250 267 277 315 331 239 173 138 186 157 139 95 103 94 12 187 103 322 342 20 359 254 199 306 300 284 344 312 343 339 23 11 56 13 99 57 73
241 83 355 194 196 271 277 304 272 182 238 283 187 74 50 124 140 136 136 134 119 154 132 286 139 217 74 68 260 306 303 251 263 302 297 337 329 0 6 345 359 17 90 176 102
299 314 186 274 280 253 188 190 258 335 281 144 260 52 9 78 14 124 143 94 74 118 82 46 170 238 188 217 265 290 302 237 276 286 285 316 334 12 356 315 275 36 199 243 89
339 269 281 144 189 228 205 222 229 337 163 318 273 167 111 60 37 55 71 72 64 33 75 294 155 242 266 246 291 262 204 287 301 282 327 316 350 336 334 334 317 301 280 3 226